Year,Month,Day,Hour,Minute,Value (Times are PST for temperature in C)
2017,08,21,00,00,19.70
2017,08,21,00,01,19.70
2017,08,21,00,02,19.60
2017,08,21,00,03,19.60
2017,08,21,00,04,19.60
2017,08,21,00,05,19.60
2017,08,21,00,06,19.60
2017,08,21,00,07,19.50
2017,08,21,00,08,19.50
2017,08,21,00,09,19.40
2017,08,21,00,10,19.40
2017,08,21,00,11,19.40
2017,08,21,00,12,19.40
2017,08,21,00,13,19.30
2017,08,21,00,14,19.30
2017,08,21,00,15,19.30
2017,08,21,00,16,19.30
2017,08,21,00,17,19.30
2017,08,21,00,18,19.30
2017,08,21,00,19,19.30
2017,08,21,00,20,19.30
2017,08,21,00,21,19.30
2017,08,21,00,22,19.30
2017,08,21,00,23,19.30
2017,08,21,00,24,19.30
2017,08,21,00,25,19.30
2017,08,21,00,26,19.30
2017,08,21,00,27,19.30
2017,08,21,00,28,19.30
2017,08,21,00,29,19.30
2017,08,21,00,30,19.20
2017,08,21,00,31,19.20
2017,08,21,00,32,19.20
2017,08,21,00,33,19.20
2017,08,21,00,34,19.10
2017,08,21,00,35,19.10
2017,08,21,00,36,19.10
2017,08,21,00,37,19.00
2017,08,21,00,38,19.00
2017,08,21,00,39,19.00
2017,08,21,00,40,18.90
2017,08,21,00,41,18.90
2017,08,21,00,42,18.80
2017,08,21,00,43,18.80
2017,08,21,00,44,18.80
2017,08,21,00,45,18.80
2017,08,21,00,46,18.80
2017,08,21,00,47,18.80
2017,08,21,00,48,18.80
2017,08,21,00,49,18.80
2017,08,21,00,50,18.80
2017,08,21,00,51,18.80
2017,08,21,00,52,18.80
2017,08,21,00,53,18.70
2017,08,21,00,54,18.70
2017,08,21,00,55,18.70
2017,08,21,00,56,18.70
2017,08,21,00,57,18.70
2017,08,21,00,58,18.70
2017,08,21,00,59,18.70
2017,08,21,01,00,18.70
2017,08,21,01,01,18.70
2017,08,21,01,02,18.70
2017,08,21,01,03,18.70
2017,08,21,01,04,18.70
2017,08,21,01,05,18.70
2017,08,21,01,06,18.70
2017,08,21,01,07,18.60
2017,08,21,01,08,18.60
2017,08,21,01,09,18.60
2017,08,21,01,10,18.60
2017,08,21,01,11,18.50
2017,08,21,01,12,18.50
2017,08,21,01,13,18.40
2017,08,21,01,14,18.40
2017,08,21,01,15,18.40
2017,08,21,01,16,18.30
2017,08,21,01,17,18.30
2017,08,21,01,18,18.30
2017,08,21,01,19,18.20
2017,08,21,01,20,18.20
2017,08,21,01,21,18.20
2017,08,21,01,22,18.10
2017,08,21,01,23,18.10
2017,08,21,01,24,18.10
2017,08,21,01,25,18.10
2017,08,21,01,26,18.00
2017,08,21,01,27,18.00
2017,08,21,01,28,18.00
2017,08,21,01,29,18.00
2017,08,21,01,30,18.00
2017,08,21,01,31,18.00
2017,08,21,01,32,18.00
2017,08,21,01,33,18.00
2017,08,21,01,34,18.00
2017,08,21,01,35,18.00
2017,08,21,01,36,18.00
2017,08,21,01,37,18.00
2017,08,21,01,38,18.00
2017,08,21,01,39,18.00
2017,08,21,01,40,18.00
2017,08,21,01,41,18.00
2017,08,21,01,42,18.00
2017,08,21,01,43,18.00
2017,08,21,01,44,18.00
2017,08,21,01,45,18.00
2017,08,21,01,46,18.00
2017,08,21,01,47,18.00
2017,08,21,01,48,18.00
2017,08,21,01,49,18.00
2017,08,21,01,50,18.00
2017,08,21,01,51,17.90
2017,08,21,01,52,17.90
2017,08,21,01,53,17.90
2017,08,21,01,54,17.90
2017,08,21,01,55,17.90
2017,08,21,01,56,17.80
2017,08,21,01,57,17.80
2017,08,21,01,58,17.80
2017,08,21,01,59,17.80
2017,08,21,02,00,17.70
2017,08,21,02,01,17.70
2017,08,21,02,02,17.70
2017,08,21,02,03,17.70
2017,08,21,02,04,17.70
2017,08,21,02,05,17.70
2017,08,21,02,06,17.70
2017,08,21,02,07,17.70
2017,08,21,02,08,17.70
2017,08,21,02,09,17.80
2017,08,21,02,10,17.80
2017,08,21,02,11,17.80
2017,08,21,02,12,17.80
2017,08,21,02,13,17.80
2017,08,21,02,14,17.80
2017,08,21,02,15,17.80
2017,08,21,02,16,17.90
2017,08,21,02,17,17.90
2017,08,21,02,18,17.90
2017,08,21,02,19,17.90
2017,08,21,02,20,18.00
2017,08,21,02,21,18.00
2017,08,21,02,22,18.00
2017,08,21,02,23,18.00
2017,08,21,02,24,18.00
2017,08,21,02,25,17.90
2017,08,21,02,26,17.90
2017,08,21,02,27,17.90
2017,08,21,02,28,17.90
2017,08,21,02,29,17.80
2017,08,21,02,30,17.80
2017,08,21,02,31,17.80
2017,08,21,02,32,17.70
2017,08,21,02,33,17.70
2017,08,21,02,34,17.70
2017,08,21,02,35,17.60
2017,08,21,02,36,17.60
2017,08,21,02,37,17.60
2017,08,21,02,38,17.60
2017,08,21,02,39,17.60
2017,08,21,02,40,17.50
2017,08,21,02,41,17.50
2017,08,21,02,42,17.50
2017,08,21,02,43,17.50
2017,08,21,02,44,17.50
2017,08,21,02,45,17.40
2017,08,21,02,46,17.40
2017,08,21,02,47,17.40
2017,08,21,02,48,17.40
2017,08,21,02,49,17.40
2017,08,21,02,50,17.40
2017,08,21,02,51,17.40
2017,08,21,02,52,17.50
2017,08,21,02,53,17.50
2017,08,21,02,54,17.50
2017,08,21,02,55,17.50
2017,08,21,02,56,17.50
2017,08,21,02,57,17.50
2017,08,21,02,58,17.50
2017,08,21,02,59,17.50
2017,08,21,03,00,17.50
2017,08,21,03,01,17.50
2017,08,21,03,02,17.50
2017,08,21,03,03,17.50
2017,08,21,03,04,17.50
2017,08,21,03,05,17.50
2017,08,21,03,06,17.40
2017,08,21,03,07,17.40
2017,08,21,03,08,17.40
2017,08,21,03,09,17.40
2017,08,21,03,10,17.30
2017,08,21,03,11,17.30
2017,08,21,03,12,17.30
2017,08,21,03,13,17.20
2017,08,21,03,14,17.20
2017,08,21,03,15,17.20
2017,08,21,03,16,17.20
2017,08,21,03,17,17.20
2017,08,21,03,18,17.10
2017,08,21,03,19,17.10
2017,08,21,03,20,17.10
2017,08,21,03,21,17.10
2017,08,21,03,22,17.10
2017,08,21,03,23,17.10
2017,08,21,03,24,17.10
2017,08,21,03,25,17.10
2017,08,21,03,26,17.10
2017,08,21,03,27,17.10
2017,08,21,03,28,17.10
2017,08,21,03,29,17.10
2017,08,21,03,30,17.10
2017,08,21,03,31,17.00
2017,08,21,03,32,17.00
2017,08,21,03,33,17.10
2017,08,21,03,34,17.10
2017,08,21,03,35,17.10
2017,08,21,03,36,17.10
2017,08,21,03,37,17.10
2017,08,21,03,38,17.10
2017,08,21,03,39,17.10
2017,08,21,03,40,17.10
2017,08,21,03,41,17.10
2017,08,21,03,42,17.10
2017,08,21,03,43,17.10
2017,08,21,03,44,17.10
2017,08,21,03,45,17.10
2017,08,21,03,46,17.00
2017,08,21,03,47,17.00
2017,08,21,03,48,17.00
2017,08,21,03,49,17.00
2017,08,21,03,50,17.00
2017,08,21,03,51,17.00
2017,08,21,03,52,17.00
2017,08,21,03,53,17.00
2017,08,21,03,54,17.00
2017,08,21,03,55,17.00
2017,08,21,03,56,17.00
2017,08,21,03,57,17.00
2017,08,21,03,58,17.00
2017,08,21,03,59,17.00
2017,08,21,04,00,17.00
2017,08,21,04,01,17.00
2017,08,21,04,02,17.00
2017,08,21,04,03,17.00
2017,08,21,04,04,17.00
2017,08,21,04,05,16.90
2017,08,21,04,06,16.90
2017,08,21,04,07,16.90
2017,08,21,04,08,16.90
2017,08,21,04,09,16.90
2017,08,21,04,10,16.90
2017,08,21,04,11,16.90
2017,08,21,04,12,16.90
2017,08,21,04,13,16.90
2017,08,21,04,14,17.00
2017,08,21,04,15,17.00
2017,08,21,04,16,16.90
2017,08,21,04,17,16.90
2017,08,21,04,18,16.90
2017,08,21,04,19,16.90
2017,08,21,04,20,16.90
2017,08,21,04,21,16.90
2017,08,21,04,22,16.90
2017,08,21,04,23,16.80
2017,08,21,04,24,16.80
2017,08,21,04,25,16.80
2017,08,21,04,26,16.70
2017,08,21,04,27,16.70
2017,08,21,04,28,16.70
2017,08,21,04,29,16.60
2017,08,21,04,30,16.60
2017,08,21,04,31,16.50
2017,08,21,04,32,16.50
2017,08,21,04,33,16.40
2017,08,21,04,34,16.40
2017,08,21,04,35,16.40
2017,08,21,04,36,16.30
2017,08,21,04,37,16.30
2017,08,21,04,38,16.30
2017,08,21,04,39,16.30
2017,08,21,04,40,16.30
2017,08,21,04,41,16.30
2017,08,21,04,42,16.30
2017,08,21,04,43,16.30
2017,08,21,04,44,16.30
2017,08,21,04,45,16.30
2017,08,21,04,46,16.30
2017,08,21,04,47,16.30
2017,08,21,04,48,16.30
2017,08,21,04,49,16.30
2017,08,21,04,50,16.30
2017,08,21,04,51,16.30
2017,08,21,04,52,16.30
2017,08,21,04,53,16.30
2017,08,21,04,54,16.30
2017,08,21,04,55,16.30
2017,08,21,04,56,16.30
2017,08,21,04,57,16.20
2017,08,21,04,58,16.20
2017,08,21,04,59,16.20
2017,08,21,05,00,16.20
2017,08,21,05,01,16.20
2017,08,21,05,02,16.20
2017,08,21,05,03,16.30
2017,08,21,05,04,16.30
2017,08,21,05,05,16.30
2017,08,21,05,06,16.30
2017,08,21,05,07,16.30
2017,08,21,05,08,16.30
2017,08,21,05,09,16.30
2017,08,21,05,10,16.40
2017,08,21,05,11,16.40
2017,08,21,05,12,16.40
2017,08,21,05,13,16.40
2017,08,21,05,14,16.40
2017,08,21,05,15,16.40
2017,08,21,05,16,16.40
2017,08,21,05,17,16.40
2017,08,21,05,18,16.40
2017,08,21,05,19,16.40
2017,08,21,05,20,16.40
2017,08,21,05,21,16.40
2017,08,21,05,22,16.40
2017,08,21,05,23,16.40
2017,08,21,05,24,16.30
2017,08,21,05,25,16.30
2017,08,21,05,26,16.30
2017,08,21,05,27,16.20
2017,08,21,05,28,16.20
2017,08,21,05,29,16.20
2017,08,21,05,30,16.20
2017,08,21,05,31,16.10
2017,08,21,05,32,16.10
2017,08,21,05,33,16.10
2017,08,21,05,34,16.10
2017,08,21,05,35,16.10
2017,08,21,05,36,16.10
2017,08,21,05,37,16.10
2017,08,21,05,38,16.10
2017,08,21,05,39,16.20
2017,08,21,05,40,16.20
2017,08,21,05,41,16.20
2017,08,21,05,42,16.20
2017,08,21,05,43,16.20
2017,08,21,05,44,16.30
2017,08,21,05,45,16.20
2017,08,21,05,46,16.20
2017,08,21,05,47,16.20
2017,08,21,05,48,16.20
2017,08,21,05,49,16.20
2017,08,21,05,50,16.20
2017,08,21,05,51,16.20
2017,08,21,05,52,16.20
2017,08,21,05,53,16.20
2017,08,21,05,54,16.20
2017,08,21,05,55,16.20
2017,08,21,05,56,16.20
2017,08,21,05,57,16.20
2017,08,21,05,58,16.20
2017,08,21,05,59,16.20
2017,08,21,06,00,16.20
2017,08,21,06,01,16.20
2017,08,21,06,02,16.20
2017,08,21,06,03,16.20
2017,08,21,06,04,16.20
2017,08,21,06,05,16.20
2017,08,21,06,06,16.20
2017,08,21,06,07,16.20
2017,08,21,06,08,16.20
2017,08,21,06,09,16.20
2017,08,21,06,10,16.20
2017,08,21,06,11,16.20
2017,08,21,06,12,16.20
2017,08,21,06,13,16.30
2017,08,21,06,14,16.30
2017,08,21,06,15,16.30
2017,08,21,06,16,16.30
2017,08,21,06,17,16.30
2017,08,21,06,18,16.30
2017,08,21,06,19,16.30
2017,08,21,06,20,16.30
2017,08,21,06,21,16.30
2017,08,21,06,22,16.30
2017,08,21,06,23,16.30
2017,08,21,06,24,16.30
2017,08,21,06,25,16.30
2017,08,21,06,26,16.30
2017,08,21,06,27,16.30
2017,08,21,06,28,16.30
2017,08,21,06,29,16.30
2017,08,21,06,30,16.30
2017,08,21,06,31,16.30
2017,08,21,06,32,16.30
2017,08,21,06,33,16.40
2017,08,21,06,34,16.40
2017,08,21,06,35,16.40
2017,08,21,06,36,16.40
2017,08,21,06,37,16.50
2017,08,21,06,38,16.50
2017,08,21,06,39,16.50
2017,08,21,06,40,16.50
2017,08,21,06,41,16.60
2017,08,21,06,42,16.60
2017,08,21,06,43,16.60
2017,08,21,06,44,16.60
2017,08,21,06,45,16.60
2017,08,21,06,46,16.60
2017,08,21,06,47,16.70
2017,08,21,06,48,16.70
2017,08,21,06,49,16.70
2017,08,21,06,50,16.80
2017,08,21,06,51,16.90
2017,08,21,06,52,16.90
2017,08,21,06,53,16.90
2017,08,21,06,54,16.90
2017,08,21,06,55,16.90
2017,08,21,06,56,17.00
2017,08,21,06,57,17.00
2017,08,21,06,58,17.00
2017,08,21,06,59,17.00
2017,08,21,07,00,17.00
2017,08,21,07,01,17.00
2017,08,21,07,02,16.90
2017,08,21,07,03,16.90
2017,08,21,07,04,16.90
2017,08,21,07,05,16.80
2017,08,21,07,06,16.70
2017,08,21,07,07,16.70
2017,08,21,07,08,16.70
2017,08,21,07,09,16.70
2017,08,21,07,10,16.60
2017,08,21,07,11,16.70
2017,08,21,07,12,16.70
2017,08,21,07,13,16.70
2017,08,21,07,14,16.70
2017,08,21,07,15,16.80
2017,08,21,07,16,16.80
2017,08,21,07,17,16.70
2017,08,21,07,18,16.80
2017,08,21,07,19,16.70
2017,08,21,07,20,16.80
2017,08,21,07,21,16.80
2017,08,21,07,22,16.80
2017,08,21,07,23,16.80
2017,08,21,07,24,16.80
2017,08,21,07,25,16.80
2017,08,21,07,26,16.80
2017,08,21,07,27,16.90
2017,08,21,07,28,16.90
2017,08,21,07,29,16.90
2017,08,21,07,30,16.90
2017,08,21,07,31,16.90
2017,08,21,07,32,16.90
2017,08,21,07,33,17.00
2017,08,21,07,34,17.00
2017,08,21,07,35,17.10
2017,08,21,07,36,17.10
2017,08,21,07,37,17.10
2017,08,21,07,38,17.20
2017,08,21,07,39,17.20
2017,08,21,07,40,17.30
2017,08,21,07,41,17.40
2017,08,21,07,42,17.40
2017,08,21,07,43,17.50
2017,08,21,07,44,17.60
2017,08,21,07,45,17.60
2017,08,21,07,46,17.70
2017,08,21,07,47,17.70
2017,08,21,07,48,17.80
2017,08,21,07,49,17.80
2017,08,21,07,50,17.80
2017,08,21,07,51,17.90
2017,08,21,07,52,18.00
2017,08,21,07,53,18.00
2017,08,21,07,54,18.10
2017,08,21,07,55,18.10
2017,08,21,07,56,18.20
2017,08,21,07,57,18.20
2017,08,21,07,58,18.20
2017,08,21,07,59,18.30
2017,08,21,08,00,18.30
2017,08,21,08,01,18.40
2017,08,21,08,02,18.40
2017,08,21,08,03,18.50
2017,08,21,08,04,18.60
2017,08,21,08,05,18.60
2017,08,21,08,06,18.70
2017,08,21,08,07,18.80
2017,08,21,08,08,18.90
2017,08,21,08,09,19.00
2017,08,21,08,10,19.10
2017,08,21,08,11,19.20
2017,08,21,08,12,19.20
2017,08,21,08,13,19.20
2017,08,21,08,14,19.20
2017,08,21,08,15,19.20
2017,08,21,08,16,19.20
2017,08,21,08,17,19.20
2017,08,21,08,18,19.20
2017,08,21,08,19,19.20
2017,08,21,08,20,19.10
2017,08,21,08,21,19.00
2017,08,21,08,22,18.90
2017,08,21,08,23,18.90
2017,08,21,08,24,18.80
2017,08,21,08,25,18.80
2017,08,21,08,26,18.90
2017,08,21,08,27,18.90
2017,08,21,08,28,19.00
2017,08,21,08,29,19.10
2017,08,21,08,30,19.20
2017,08,21,08,31,19.20
2017,08,21,08,32,19.20
2017,08,21,08,33,19.20
2017,08,21,08,34,19.20
2017,08,21,08,35,19.20
2017,08,21,08,36,19.20
2017,08,21,08,37,19.20
2017,08,21,08,38,19.30
2017,08,21,08,39,19.30
2017,08,21,08,40,19.30
2017,08,21,08,41,19.30
2017,08,21,08,42,19.30
2017,08,21,08,43,19.40
2017,08,21,08,44,19.40
2017,08,21,08,45,19.40
2017,08,21,08,46,19.40
2017,08,21,08,47,19.30
2017,08,21,08,48,19.20
2017,08,21,08,49,19.20
2017,08,21,08,50,19.10
2017,08,21,08,51,19.10
2017,08,21,08,52,19.10
2017,08,21,08,53,19.20
2017,08,21,08,54,19.30
2017,08,21,08,55,19.40
2017,08,21,08,56,19.40
2017,08,21,08,57,19.50
2017,08,21,08,58,19.50
2017,08,21,08,59,19.60
2017,08,21,09,00,19.60
2017,08,21,09,01,19.60
2017,08,21,09,02,19.70
2017,08,21,09,03,19.70
2017,08,21,09,04,19.70
2017,08,21,09,05,19.70
2017,08,21,09,06,19.60
2017,08,21,09,07,19.60
2017,08,21,09,08,19.70
2017,08,21,09,09,19.60
2017,08,21,09,10,19.60
2017,08,21,09,11,19.70
2017,08,21,09,12,19.60
2017,08,21,09,13,19.60
2017,08,21,09,14,19.50
2017,08,21,09,15,19.40
2017,08,21,09,16,19.40
2017,08,21,09,17,19.40
2017,08,21,09,18,19.40
2017,08,21,09,19,19.50
2017,08,21,09,20,19.60
2017,08,21,09,21,19.60
2017,08,21,09,22,19.70
2017,08,21,09,23,19.80
2017,08,21,09,24,19.80
2017,08,21,09,25,19.80
2017,08,21,09,26,19.70
2017,08,21,09,27,19.60
2017,08,21,09,28,19.60
2017,08,21,09,29,19.60
2017,08,21,09,30,19.60
2017,08,21,09,31,19.70
2017,08,21,09,32,19.70
2017,08,21,09,33,19.80
2017,08,21,09,34,19.80
2017,08,21,09,35,19.80
2017,08,21,09,36,19.90
2017,08,21,09,37,20.00
2017,08,21,09,38,20.00
2017,08,21,09,39,19.90
2017,08,21,09,40,19.90
2017,08,21,09,41,19.90
2017,08,21,09,42,19.80
2017,08,21,09,43,19.80
2017,08,21,09,44,19.80
2017,08,21,09,45,19.70
2017,08,21,09,46,19.70
2017,08,21,09,47,19.70
2017,08,21,09,48,19.70
2017,08,21,09,49,19.70
2017,08,21,09,50,19.70
2017,08,21,09,51,19.70
2017,08,21,09,52,19.70
2017,08,21,09,53,19.70
2017,08,21,09,54,19.70
2017,08,21,09,55,19.70
2017,08,21,09,56,19.70
2017,08,21,09,57,19.70
2017,08,21,09,58,19.70
2017,08,21,09,59,19.60
2017,08,21,10,00,19.60
2017,08,21,10,01,19.50
2017,08,21,10,02,19.40
2017,08,21,10,03,19.40
2017,08,21,10,04,19.30
2017,08,21,10,05,19.30
2017,08,21,10,06,19.30
2017,08,21,10,07,19.30
2017,08,21,10,08,19.30
2017,08,21,10,09,19.30
2017,08,21,10,10,19.30
2017,08,21,10,11,19.20
2017,08,21,10,12,19.20
2017,08,21,10,13,19.10
2017,08,21,10,14,19.10
2017,08,21,10,15,19.10
2017,08,21,10,16,19.10
2017,08,21,10,17,19.10
2017,08,21,10,18,19.10
2017,08,21,10,19,19.10
2017,08,21,10,20,19.00
2017,08,21,10,21,19.00
2017,08,21,10,22,18.90
2017,08,21,10,23,18.80
2017,08,21,10,24,18.80
2017,08,21,10,25,18.70
2017,08,21,10,26,18.60
2017,08,21,10,27,18.50
2017,08,21,10,28,18.40
2017,08,21,10,29,18.30
2017,08,21,10,30,18.30
2017,08,21,10,31,18.20
2017,08,21,10,32,18.20
2017,08,21,10,33,18.20
2017,08,21,10,34,18.20
2017,08,21,10,35,18.10
2017,08,21,10,36,18.10
2017,08,21,10,37,18.10
2017,08,21,10,38,18.10
2017,08,21,10,39,18.10
2017,08,21,10,40,18.10
2017,08,21,10,41,18.10
2017,08,21,10,42,18.10
2017,08,21,10,43,18.10
2017,08,21,10,44,18.20
2017,08,21,10,45,18.20
2017,08,21,10,46,18.20
2017,08,21,10,47,18.20
2017,08,21,10,48,18.20
2017,08,21,10,49,18.20
2017,08,21,10,50,18.20
2017,08,21,10,51,18.20
2017,08,21,10,52,18.20
2017,08,21,10,53,18.30
2017,08,21,10,54,18.30
2017,08,21,10,55,18.30
2017,08,21,10,56,18.40
2017,08,21,10,57,18.40
2017,08,21,10,58,18.50
2017,08,21,10,59,18.50
2017,08,21,11,00,18.60
2017,08,21,11,01,18.60
2017,08,21,11,02,18.70
2017,08,21,11,03,18.70
2017,08,21,11,04,18.70
2017,08,21,11,05,18.80
2017,08,21,11,06,18.90
2017,08,21,11,07,18.90
2017,08,21,11,08,19.00
2017,08,21,11,09,19.00
2017,08,21,11,10,19.00
2017,08,21,11,11,19.10
2017,08,21,11,12,19.10
2017,08,21,11,13,19.20
2017,08,21,11,14,19.30
2017,08,21,11,15,19.30
2017,08,21,11,16,19.40
2017,08,21,11,17,19.40
2017,08,21,11,18,19.50
2017,08,21,11,19,19.60
2017,08,21,11,20,19.70
2017,08,21,11,21,19.70
2017,08,21,11,22,19.80
2017,08,21,11,23,19.80
2017,08,21,11,24,19.90
2017,08,21,11,25,20.00
2017,08,21,11,26,20.10
2017,08,21,11,27,20.20
2017,08,21,11,28,20.20
2017,08,21,11,29,20.30
2017,08,21,11,30,20.20
2017,08,21,11,31,20.20
2017,08,21,11,32,20.30
2017,08,21,11,33,20.40
2017,08,21,11,34,20.50
2017,08,21,11,35,20.60
2017,08,21,11,36,20.70
2017,08,21,11,37,20.80
2017,08,21,11,38,20.90
2017,08,21,11,39,21.00
2017,08,21,11,40,21.20
2017,08,21,11,41,21.30
2017,08,21,11,42,21.50
2017,08,21,11,43,21.60
2017,08,21,11,44,21.80
2017,08,21,11,45,21.80
2017,08,21,11,46,21.90
2017,08,21,11,47,22.00
2017,08,21,11,48,22.10
2017,08,21,11,49,22.20
2017,08,21,11,50,22.20
2017,08,21,11,51,22.20
2017,08,21,11,52,22.20
2017,08,21,11,53,22.30
2017,08,21,11,54,22.30
2017,08,21,11,55,22.40
2017,08,21,11,56,22.50
2017,08,21,11,57,22.50
2017,08,21,11,58,22.60
2017,08,21,11,59,22.60
2017,08,21,12,00,22.70
2017,08,21,12,01,22.90
2017,08,21,12,02,23.00
2017,08,21,12,03,23.10
2017,08,21,12,04,23.10
2017,08,21,12,05,23.00
2017,08,21,12,06,23.00
2017,08,21,12,07,22.90
2017,08,21,12,08,22.80
2017,08,21,12,09,22.70
2017,08,21,12,10,22.60
2017,08,21,12,11,22.60
2017,08,21,12,12,22.60
2017,08,21,12,13,22.50
2017,08,21,12,14,22.40
2017,08,21,12,15,22.30
2017,08,21,12,16,22.20
2017,08,21,12,17,22.00
2017,08,21,12,18,21.80
2017,08,21,12,19,21.80
2017,08,21,12,20,21.70
2017,08,21,12,21,21.70
2017,08,21,12,22,21.70
2017,08,21,12,23,21.70
2017,08,21,12,24,21.60
2017,08,21,12,25,21.70
2017,08,21,12,26,21.70
2017,08,21,12,27,21.60
2017,08,21,12,28,21.60
2017,08,21,12,29,21.60
2017,08,21,12,30,21.60
2017,08,21,12,31,21.60
2017,08,21,12,32,21.60
2017,08,21,12,33,21.70
2017,08,21,12,34,21.80
2017,08,21,12,35,22.00
2017,08,21,12,36,22.20
2017,08,21,12,37,22.30
2017,08,21,12,38,22.30
2017,08,21,12,39,22.40
2017,08,21,12,40,22.30
2017,08,21,12,41,22.20
2017,08,21,12,42,22.20
2017,08,21,12,43,22.20
2017,08,21,12,44,22.20
2017,08,21,12,45,22.30
2017,08,21,12,46,22.40
2017,08,21,12,47,22.50
2017,08,21,12,48,22.50
2017,08,21,12,49,22.60
2017,08,21,12,50,22.70
2017,08,21,12,51,22.70
2017,08,21,12,52,22.70
2017,08,21,12,53,22.70
2017,08,21,12,54,22.60
2017,08,21,12,55,22.50
2017,08,21,12,56,22.50
2017,08,21,12,57,22.50
2017,08,21,12,58,22.50
2017,08,21,12,59,22.40
2017,08,21,13,00,22.30
2017,08,21,13,01,22.30
2017,08,21,13,02,22.30
2017,08,21,13,03,22.40
2017,08,21,13,04,22.40
2017,08,21,13,05,22.60
2017,08,21,13,06,22.80
2017,08,21,13,07,23.10
2017,08,21,13,08,23.30
2017,08,21,13,09,23.50
2017,08,21,13,10,23.70
2017,08,21,13,11,23.80
2017,08,21,13,12,23.90
2017,08,21,13,13,23.90
2017,08,21,13,14,23.80
2017,08,21,13,15,23.70
2017,08,21,13,16,23.70
2017,08,21,13,17,23.80
2017,08,21,13,18,23.90
2017,08,21,13,19,24.00
2017,08,21,13,20,23.90
2017,08,21,13,21,23.60
2017,08,21,13,22,23.30
2017,08,21,13,23,23.20
2017,08,21,13,24,23.10
2017,08,21,13,25,23.10
2017,08,21,13,26,23.00
2017,08,21,13,27,23.10
2017,08,21,13,28,23.10
2017,08,21,13,29,23.10
2017,08,21,13,30,23.00
2017,08,21,13,31,23.00
2017,08,21,13,32,22.80
2017,08,21,13,33,22.80
2017,08,21,13,34,22.80
2017,08,21,13,35,22.80
2017,08,21,13,36,22.90
2017,08,21,13,37,23.00
2017,08,21,13,38,23.10
2017,08,21,13,39,23.20
2017,08,21,13,40,23.20
2017,08,21,13,41,23.20
2017,08,21,13,42,23.30
2017,08,21,13,43,23.40
2017,08,21,13,44,23.60
2017,08,21,13,45,23.70
2017,08,21,13,46,23.90
2017,08,21,13,47,23.90
2017,08,21,13,48,24.00
2017,08,21,13,49,24.10
2017,08,21,13,50,24.10
2017,08,21,13,51,24.10
2017,08,21,13,52,24.00
2017,08,21,13,53,23.90
2017,08,21,13,54,23.90
2017,08,21,13,55,23.90
2017,08,21,13,56,23.80
2017,08,21,13,57,23.80
2017,08,21,13,58,23.70
2017,08,21,13,59,23.60
2017,08,21,14,00,23.40
2017,08,21,14,01,23.30
2017,08,21,14,02,23.20
2017,08,21,14,03,23.20
2017,08,21,14,04,23.20
2017,08,21,14,05,23.20
2017,08,21,14,06,23.20
2017,08,21,14,07,23.20
2017,08,21,14,08,23.10
2017,08,21,14,09,23.00
2017,08,21,14,10,22.80
2017,08,21,14,11,22.70
2017,08,21,14,12,22.70
2017,08,21,14,13,22.60
2017,08,21,14,14,22.60
2017,08,21,14,15,22.70
2017,08,21,14,16,22.80
2017,08,21,14,17,22.80
2017,08,21,14,18,22.80
2017,08,21,14,19,22.80
2017,08,21,14,20,22.80
2017,08,21,14,21,22.70
2017,08,21,14,22,22.80
2017,08,21,14,23,22.90
2017,08,21,14,24,23.00
2017,08,21,14,25,23.20
2017,08,21,14,26,23.40
2017,08,21,14,27,23.60
2017,08,21,14,28,23.80
2017,08,21,14,29,23.90
2017,08,21,14,30,24.00
2017,08,21,14,31,24.10
2017,08,21,14,32,24.20
2017,08,21,14,33,24.30
2017,08,21,14,34,24.40
2017,08,21,14,35,24.50
2017,08,21,14,36,24.60
2017,08,21,14,37,24.70
2017,08,21,14,38,24.70
2017,08,21,14,39,24.80
2017,08,21,14,40,24.90
2017,08,21,14,41,25.00
2017,08,21,14,42,25.00
2017,08,21,14,43,25.00
2017,08,21,14,44,24.90
2017,08,21,14,45,24.90
2017,08,21,14,46,24.80
2017,08,21,14,47,24.80
2017,08,21,14,48,24.80
2017,08,21,14,49,24.80
2017,08,21,14,50,24.80
2017,08,21,14,51,24.80
2017,08,21,14,52,24.80
2017,08,21,14,53,24.90
2017,08,21,14,54,24.80
2017,08,21,14,55,24.70
2017,08,21,14,56,24.60
2017,08,21,14,57,24.60
2017,08,21,14,58,24.60
2017,08,21,14,59,24.60
2017,08,21,15,00,24.60
2017,08,21,15,01,24.60
2017,08,21,15,02,24.60
2017,08,21,15,03,24.70
2017,08,21,15,04,24.70
2017,08,21,15,05,24.80
2017,08,21,15,06,24.70
2017,08,21,15,07,24.70
2017,08,21,15,08,24.60
2017,08,21,15,09,24.60
2017,08,21,15,10,24.60
2017,08,21,15,11,24.60
2017,08,21,15,12,24.60
2017,08,21,15,13,24.60
2017,08,21,15,14,24.60
2017,08,21,15,15,24.60
2017,08,21,15,16,24.70
2017,08,21,15,17,24.70
2017,08,21,15,18,24.80
2017,08,21,15,19,24.90
2017,08,21,15,20,25.00
2017,08,21,15,21,25.00
2017,08,21,15,22,24.90
2017,08,21,15,23,24.80
2017,08,21,15,24,24.80
2017,08,21,15,25,24.80
2017,08,21,15,26,24.70
2017,08,21,15,27,24.60
2017,08,21,15,28,24.60
2017,08,21,15,29,24.50
2017,08,21,15,30,24.40
2017,08,21,15,31,24.30
2017,08,21,15,32,24.30
2017,08,21,15,33,24.20
2017,08,21,15,34,24.10
2017,08,21,15,35,24.00
2017,08,21,15,36,23.80
2017,08,21,15,37,23.80
2017,08,21,15,38,23.80
2017,08,21,15,39,23.80
2017,08,21,15,40,23.90
2017,08,21,15,41,24.00
2017,08,21,15,42,24.00
2017,08,21,15,43,24.10
2017,08,21,15,44,24.20
2017,08,21,15,45,24.30
2017,08,21,15,46,24.30
2017,08,21,15,47,24.30
2017,08,21,15,48,24.20
2017,08,21,15,49,24.10
2017,08,21,15,50,24.10
2017,08,21,15,51,24.20
2017,08,21,15,52,24.30
2017,08,21,15,53,24.40
2017,08,21,15,54,24.50
2017,08,21,15,55,24.50
2017,08,21,15,56,24.60
2017,08,21,15,57,24.60
2017,08,21,15,58,24.60
2017,08,21,15,59,24.60
2017,08,21,16,00,24.70
2017,08,21,16,01,24.80
2017,08,21,16,02,24.90
2017,08,21,16,03,24.90
2017,08,21,16,04,25.00
2017,08,21,16,05,25.00
2017,08,21,16,06,25.00
2017,08,21,16,07,25.00
2017,08,21,16,08,24.90
2017,08,21,16,09,24.70
2017,08,21,16,10,24.60
2017,08,21,16,11,24.40
2017,08,21,16,12,24.40
2017,08,21,16,13,24.50
2017,08,21,16,14,24.70
2017,08,21,16,15,24.80
2017,08,21,16,16,25.00
2017,08,21,16,17,25.20
2017,08,21,16,18,25.30
2017,08,21,16,19,25.50
2017,08,21,16,20,25.70
2017,08,21,16,21,25.90
2017,08,21,16,22,26.00
2017,08,21,16,23,26.20
2017,08,21,16,24,26.30
2017,08,21,16,25,26.40
2017,08,21,16,26,26.50
2017,08,21,16,27,26.60
2017,08,21,16,28,26.70
2017,08,21,16,29,26.70
2017,08,21,16,30,26.70
2017,08,21,16,31,26.80
2017,08,21,16,32,26.80
2017,08,21,16,33,26.70
2017,08,21,16,34,26.80
2017,08,21,16,35,26.80
2017,08,21,16,36,26.80
2017,08,21,16,37,26.90
2017,08,21,16,38,26.90
2017,08,21,16,39,27.00
2017,08,21,16,40,27.10
2017,08,21,16,41,27.20
2017,08,21,16,42,27.20
2017,08,21,16,43,27.30
2017,08,21,16,44,27.30
2017,08,21,16,45,27.40
2017,08,21,16,46,27.40
2017,08,21,16,47,27.50
2017,08,21,16,48,27.50
2017,08,21,16,49,27.50
2017,08,21,16,50,27.50
2017,08,21,16,51,27.40
2017,08,21,16,52,27.40
2017,08,21,16,53,27.30
2017,08,21,16,54,27.30
2017,08,21,16,55,27.20
2017,08,21,16,56,27.30
2017,08,21,16,57,27.20
2017,08,21,16,58,27.10
2017,08,21,16,59,27.10
2017,08,21,17,00,27.10
2017,08,21,17,01,27.10
2017,08,21,17,02,27.10
2017,08,21,17,03,27.20
2017,08,21,17,04,27.20
2017,08,21,17,05,27.30
2017,08,21,17,06,27.30
2017,08,21,17,07,27.30
2017,08,21,17,08,27.40
2017,08,21,17,09,27.40
2017,08,21,17,10,27.40
2017,08,21,17,11,27.40
2017,08,21,17,12,27.40
2017,08,21,17,13,27.50
2017,08,21,17,14,27.50
2017,08,21,17,15,27.60
2017,08,21,17,16,27.70
2017,08,21,17,17,27.80
2017,08,21,17,18,27.80
2017,08,21,17,19,27.80